Back to catalog

WESTFORD NEEDLES

LostPO
NORAD 43288·DEBRIS·🇺🇸 United States

Launched May 9, 1963 from Vandenberg Space Force Base

Loading…

Next Passes (next 24 hours)

TLE

StaleSource: Space-Track

Epoch: Apr 16, 2026, 13:33 UTC

1 43288U 63014FL  26106.56492567  .00000017  00000-0  54262-2 0  9997
2 43288  87.0930 103.0638 0832958 282.4677  68.4302  8.67259630362602

Track WESTFORD NEEDLES in real time with AllMySat

Download on the App Store